sat.trackr.live / text

‹ back to catalog

STARLINK-5425

NORAD 54791 · 2022-175AK

PAYLOAD ACTIVE UNKNOWN

§ Identity

Operator
Country
US
Launch date
2022-12-17
Launch site
AFETR
Launch vehicle
Mass (kg)
RCS (m²)

Purposes: comms

External: N2YO · Heavens-Above · Gunter

§ Orbital elements

Epoch: 2026-05-25T03:40:15.680928Z

Period
95.44 min
Inclination
53.2151°
Eccentricity
0.0001384
Mean motion
15.08840017 rev/d
Perigee alt
538.8 km
Apogee alt
540.7 km
Semi-major
6,917.9 km
B*
4.1171e-5
RAAN
45.8078°
Arg perigee
79.4463°
Mean anomaly
280.6685°
Rev number
19,167

§ Raw data

STARLINK-54251 54791U 22175AK  26145.15295927  .00000367  00000+0  41171-4 0  99942 54791  53.2151  45.8078 0001384  79.4463 280.6685 15.08840017191679

JSON: /api/v1/satellites/54791 · /tle

For live sub-satellite position, see the globe view (requires WebGL).

§ Visibility from observer

Set your observer location to see the next 7 days of passes ≥ 10°. The values pass through the URL so the page stays shareable.

No JS? Fill the form by hand. The geolocation button needs JavaScript.